sat.trackr.live / text

‹ back to catalog

STARLINK-36412

NORAD 67518 · 2026-012AB

PAYLOAD ACTIVE UNKNOWN

§ Identity

Operator
Country
US
Launch date
2026-01-18
Launch site
AFETR
Launch vehicle
Mass (kg)
RCS (m²)

Purposes: comms

External: N2YO · Heavens-Above · Gunter

§ Orbital elements

Epoch: 2026-09-19T19:28:49.469088Z

Period
94.27 min
Inclination
43.0061°
Eccentricity
0.0001714
Mean motion
15.27594768 rev/d
Perigee alt
481.8 km
Apogee alt
484.2 km
Semi-major
6,861.1 km
B*
3.3303e-4
RAAN
297.8057°
Arg perigee
271.5124°
Mean anomaly
88.5531°
Rev number
3,745

§ Raw data

STARLINK-364121 67518U 26012AB  26262.81168367  .00008917  00000+0  33303-3 0  99952 67518  43.0061 297.8057 0001714 271.5124  88.5531 15.27594768 37459

JSON: /api/v1/satellites/67518 · /tle

For live sub-satellite position, see the globe view (requires WebGL).

§ Visibility from observer

Set your observer location to see the next 7 days of passes ≥ 10°. The values pass through the URL so the page stays shareable.

No JS? Fill the form by hand. The geolocation button needs JavaScript.